[[{"header":{"parameterUnit":"m.s-1","parameterCategory":1,"la1":30.2991,"la2":30.254,"lo1":-89.0895,"lo2":-89.0444,"dy":0.0017,"dx":0.0017,"nx":28,"ny":28,"refTime":"2023-11-09T03:00:00:Z","depth":0,"parameterNumber":2,"parameterNumberName":"U-component_of_WINDS"},"data":[0,0,0,0,0,0,0,0,0,0,0,0,0,0,0,0,0,0,0,0,0,0,0,0,0,0,0,0,0,0,0,0,0,0,0,0,0,0,0,0,0,0,0,0,0,0,0,0,0,0,0,0,0,0,0,0,0,0,-0.9246,-0.9248,0,-0.9458,-0.946,-0.9463,-0.9514,-0.9512,-0.9511,-0.951,-0.9727,-0.9734,-0.9741,0,0,0,0,0,0,0,0,0,0,0,0,0,-0.8884,-0.8891,-0.9246,-0.9248,-0.9251,-0.9458,-0.9461,-0.9463,-0.9514,-0.9512,-0.9511,-0.9509,-0.9725,-0.9733,-0.9742,0,0,0,0,0,0,0,0,0,0,0,0,0,-0.9063,-0.8893,-0.9245,-0.9301,-0.9308,-0.9457,-0.9461,-0.9464,-0.9514,-0.9512,-0.951,-0.9508,-0.9722,-0.9733,-0.9743,-0.9851,0,0,-0.9776,-0.978,0,0,0,0,0,0,0,0,-0.9053,-0.9077,-0.929,-0.9298,-0.9306,-0.9457,-0.9413,-0.9594,-0.9515,-0.9436,-0.951,-0.9507,-0.9639,-0.9657,-0.9701,-0.9862,-0.9871,-0.9777,-0.9783,-0.9788,-0.9791,0,0,0,0,0,0,0,-0.9041,-0.9068,-0.933,-0.9293,-0.9303,-0.9316,-0.9339,-0.9448,-0.9547,-0.9443,-0.9447,-0.9472,-0.9643,-0.9691,-0.9707,-0.9874,-0.9776,-0.9786,-0.9792,-0.9797,-1.0134,-1.0136,0,0,0,0,0,0,-0.9019,-0.9057,-0.9323,-0.9336,-0.9172,-0.9324,-0.935,-0.9411,-0.9546,-0.9565,-0.9473,-0.9473,-0.9673,-0.9694,-0.9714,-0.985,-0.9788,-0.9798,-0.9804,-1.0131,-1.0135,-1.0137,0,0,0,0,0,0,-0.9011,-0.9042,-0.9314,-0.9198,-0.9234,-0.9332,-0.9401,-0.9416,-0.9464,-0.9569,-0.9587,-0.9503,-0.9673,-0.9699,-0.9817,-0.9858,-0.9802,-0.9812,-1.0128,-1.0132,-1.0136,-1.0121,0,0,0,0,0,0,-0.9,-0.9039,-0.9081,-0.9198,-0.924,-0.9413,-0.9403,-0.9422,-0.9482,-0.9484,-0.9602,-0.962,-0.9673,-0.9801,-0.9827,-0.9872,-0.982,-1.0125,-1.013,-1.0135,-1.0118,-1.0124,-1.0129,0,0,0,0,0,-0.8987,-0.9068,-0.9083,-0.9114,-0.9294,-0.9415,-0.9439,-0.9499,-0.9485,-0.9528,-0.9596,-0.9616,-0.9849,-0.9812,-0.9843,-0.9891,-1.0123,-1.0129,-1.0134,-1.0116,-1.0123,-1.0129,0,0,0,0,0,0,-0.8953,-0.9085,-0.9102,-0.9224,-0.9308,-0.9424,-0.948,-0.9504,-0.9594,-0.9592,-0.9663,-0.9689,-0.9802,-0.9858,-0.9815,-1.0003,-0.9986,-0.9998,-0.9961,-0.9969,-0.9974,-0.9957,-0.9829,0,0,0,0,0,-0.8959,-0.9047,-0.9157,-0.9254,-0.9295,-0.938,-0.9435,-0.9474,-0.9564,-0.96,-0.9676,-0.9763,-0.9856,-0.9916,-1.0007,-1.0127,-1.0153,-1.0175,-1.018,-1.0184,-1.0194,-1.0261,-1.0272,-1.0156,-1.0156,-1.0156,0,0,-0.8974,-0.9057,-0.9107,-0.9249,-0.9319,-0.9408,-0.941,-0.9504,-0.957,-0.9614,-0.973,-0.9789,-0.989,-1.0009,-1.0066,-1.006,-1.0231,-1.0192,-1.0194,-1.0201,-1.0268,-1.0279,-1.0288,-1.016,-1.016,-1.0159,0,0,-0.9045,-0.9117,-0.9205,-0.9275,-0.9381,-0.9437,-0.9458,-0.9571,-0.9611,-0.9728,-0.9763,-0.9843,-1.0002,-1.0073,-1.013,-1.0228,-1.025,-1.0256,-1.0283,-1.0348,-1.0357,-1.0365,-1.04,-1.0412,-1.0266,-1.0266,-1.0266,0,-0.9049,-0.9185,-0.9247,-0.934,-0.9401,-0.9445,-0.9535,-0.96,-0.973,-0.9771,-0.9763,-0.9963,-1.0035,-1.0171,-1.0195,-1.0239,-1.0266,-1.0243,-1.0351,-1.036,-1.0369,-1.0402,-1.0415,-1.0265,-1.0265,-1.0265,-1.0265,0,-0.9185,-0.9278,-0.9337,-0.9461,-0.9529,-0.9619,-0.9696,-0.9757,-0.979,-0.9847,-0.9965,-1.0053,-1.0163,-1.0198,-1.0231,-1.0339,-1.0332,-1.0337,-1.0321,-1.0378,-1.0411,-1.0425,-1.0265,-1.0265,-1.0265,-1.0265,0,0,-0.924,-0.9398,-0.9418,-0.9475,-0.9595,-0.9668,-0.9761,-0.9868,-0.9919,-1.0008,-1.0087,-1.022,-1.0225,-1.029,-1.0332,-1.0389,-1.046,-1.0386,-1.039,-1.0396,-1.0584,-1.0579,-1.0593,-1.0476,-1.0479,-1.0481,-1.0575,0,-0.9325,-0.9492,-0.9551,-0.9689,-0.9775,-0.9819,-0.99,-0.9982,-1.0038,-1.0119,-1.0181,-1.0274,-1.0274,-1.0313,-1.0372,-1.0439,-1.0499,-1.0433,-1.055,-1.0554,-1.0522,-1.0611,-1.0606,-1.0691,-1.0589,-1.0591,-1.0593,0,-0.9447,-0.9537,-0.9683,-0.9792,-0.9831,-0.9902,-1.0005,-1.0083,-1.0177,-1.0214,-1.0286,-1.0324,-1.0423,-1.0401,-1.0538,-1.0492,-1.0544,-1.0584,-1.0589,-1.0602,-1.0576,-1.0625,-1.0719,-1.0732,-1.0614,-1.0612,-1.061,0,-0.9471,-0.9629,-0.9737,-0.9784,-0.9915,-0.9964,-1.002,-1.0113,-1.0173,-1.0264,-1.0304,-1.0404,-1.0459,-1.0536,-1.06,-1.0579,-1.0731,-1.0716,-1.0764,-1.0763,-1.0794,-1.0791,-1.0897,-1.0828,-1.0828,-1.0827,-1.0827,0,-0.956,-0.9647,-0.9749,-0.9815,-0.9915,-0.9982,-1.0078,-1.0138,-1.022,-1.0298,-1.0342,-1.0415,-1.0496,-1.0579,-1.063,-1.0735,-1.076,-1.0792,-1.0804,-1.0788,-1.0784,-1.0822,-1.0817,-1.0831,-1.083,-1.083,-1.0829,0,-0.9603,-0.9675,-0.9795,-0.9909,-0.994,-1.0008,-1.0105,-1.0171,-1.0229,-1.0328,-1.0355,-1.0446,-1.0546,-1.0618,-1.0747,-1.0781,-1.0894,-1.0907,-1.0862,-1.0868,-1.0912,-1.0907,-1.1046,-1.1068,-1.0985,-1.0986,-1.0986,0,-0.9655,-0.9723,-0.9844,-0.99,-0.9956,-1.0045,-1.0108,-1.0177,-1.024,-1.0353,-1.0405,-1.0508,-1.0595,-1.0753,-1.0831,-1.093,-1.0945,-1.0987,-1.096,-1.0941,-1.0945,-1.0939,-1.0946,-1.099,-1.0991,-1.0991,-1.0992,0,-0.9738,-0.977,-0.9858,-0.9959,-1.0032,-1.0114,-1.0197,-1.024,-1.0324,-1.0393,-1.0496,-1.0563,-1.0695,-1.0797,-1.0904,-1.0963,-1.0991,-1.1,-1.1016,-1.0999,-1.097,-1.0986,-1.0872,-1.0996,-1.0995,-1.0995,-1.0995,-1.0995,-0.9787,-0.9849,-0.9944,-1.0041,-1.011,-1.0187,-1.0255,-1.0321,-1.0408,-1.0521,-1.0557,-1.0663,-1.0757,-1.0903,-1.0963,-1.1048,-1.1046,-1.107,-1.1076,-1.108,-1.1079,-1.0957,-1.1068,-1.1068,-1.1068,-1.1068,-1.1068,0,-0.9871,-0.9935,-1.0023,-1.0138,-1.0214,-1.0234,-1.0328,-1.039,-1.0483,-1.0567,-1.0651,-1.077,-1.0869,-1.0955,-1.1058,-1.1109,-1.1125,-1.1134,-1.113,-1.1143,-1.1075,-1.105,-1.1119,-1.1119,-1.1119,-1.1119,-1.1119,-1.1119,-0.9924,-1.0031,-1.0074,-1.0216,-1.028,-1.0384,-1.0436,-1.0507,-1.0575,-1.0705,-1.0787,-1.0843,-1.0928,-1.1038,-1.113,-1.1152,-1.1188,-1.1194,-1.1219,-1.1154,-1.1148,-1.1142,-1.1119,-1.1201,-1.1201,-1.128,-1.1281,-1.1281]},{"header":{"parameterUnit":"m.s-1","parameterCategory":1,"la1":30.2991,"la2":30.254,"lo1":-89.0895,"lo2":-89.0444,"dy":0.0017,"dx":0.0017,"nx":28,"ny":28,"refTime":"2023-11-09T03:00:00:Z","depth":0,"parameterNumber":3,"parameterNumberName":"V-component_of_WINDS"},"data":[0,0,0,0,0,0,0,0,0,0,0,0,0,0,0,0,0,0,0,0,0,0,0,0,0,0,0,0,0,0,0,0,0,0,0,0,0,0,0,0,0,0,0,0,0,0,0,0,0,0,0,0,0,0,0,0,0,0,0.6744,0.6746,0,0.6892,0.6893,0.6895,0.6975,0.6975,0.6975,0.6975,0.7122,0.7126,0.713,0,0,0,0,0,0,0,0,0,0,0,0,0,0.6526,0.653,0.6744,0.6746,0.6748,0.6891,0.6894,0.6896,0.6975,0.6975,0.6975,0.6975,0.7121,0.7125,0.713,0,0,0,0,0,0,0,0,0,0,0,0,0,0.6642,0.6531,0.6744,0.6805,0.6812,0.6891,0.6894,0.6896,0.6975,0.6975,0.6975,0.6975,0.712,0.7125,0.7131,0.7159,0,0,0.7148,0.715,0,0,0,0,0,0,0,0,0.6635,0.665,0.6794,0.6801,0.6809,0.6915,0.6871,0.6984,0.6974,0.6913,0.6975,0.6975,0.7053,0.7064,0.7091,0.7166,0.7173,0.7148,0.7152,0.7154,0.7156,0,0,0,0,0,0,0,0.6627,0.6644,0.6802,0.6796,0.6805,0.6823,0.684,0.6892,0.6979,0.6918,0.6924,0.6941,0.7057,0.7085,0.7095,0.7175,0.7148,0.7153,0.7156,0.7159,0.728,0.728,0,0,0,0,0,0,0.661,0.6636,0.6798,0.6807,0.6721,0.6827,0.6845,0.6881,0.6979,0.6994,0.694,0.6944,0.7076,0.7088,0.71,0.7141,0.7154,0.7159,0.7162,0.728,0.728,0.728,0,0,0,0,0,0,0.6605,0.6623,0.6792,0.6723,0.6746,0.683,0.6869,0.6883,0.6912,0.6996,0.7011,0.6954,0.7076,0.7092,0.7144,0.7147,0.7162,0.7167,0.728,0.728,0.728,0.7221,0,0,0,0,0,0,0.6598,0.6621,0.6634,0.6723,0.675,0.6835,0.6869,0.6886,0.6922,0.6928,0.7013,0.7027,0.7078,0.7135,0.715,0.7155,0.7171,0.7281,0.728,0.728,0.7223,0.7219,0.7215,0,0,0,0,0,0.659,0.6611,0.6635,0.6654,0.6768,0.6835,0.685,0.6909,0.6922,0.6935,0.6988,0.7024,0.7144,0.714,0.7157,0.7163,0.7281,0.728,0.728,0.7225,0.7219,0.7215,0,0,0,0,0,0,0.6519,0.6624,0.6651,0.6702,0.6759,0.6848,0.6867,0.6902,0.6955,0.6958,0.7029,0.7047,0.7092,0.7133,0.7127,0.7196,0.7216,0.7219,0.7168,0.7164,0.716,0.7149,0.7176,0,0,0,0,0,0.651,0.6557,0.6645,0.6681,0.6708,0.6782,0.6813,0.6854,0.6915,0.6939,0.6997,0.7054,0.7104,0.7136,0.7187,0.7229,0.7248,0.7241,0.7237,0.7234,0.7235,0.726,0.7258,0.7279,0.7279,0.7279,0,0,0.649,0.6553,0.6578,0.6668,0.6717,0.6763,0.6802,0.6848,0.6882,0.6946,0.6999,0.7043,0.7111,0.7157,0.718,0.7193,0.7234,0.7233,0.723,0.7234,0.7259,0.7257,0.7255,0.7279,0.7279,0.7279,0,0,0.6478,0.6531,0.6567,0.6615,0.6689,0.6738,0.6746,0.6829,0.6861,0.6915,0.6964,0.7004,0.709,0.7136,0.7171,0.7174,0.7208,0.7188,0.7168,0.719,0.7189,0.7187,0.7188,0.7188,0.719,0.719,0.719,0,0.6445,0.6517,0.658,0.6624,0.6662,0.6722,0.6758,0.6801,0.6887,0.691,0.6923,0.7031,0.7081,0.7139,0.7139,0.7165,0.7176,0.718,0.7184,0.7183,0.7183,0.7185,0.7185,0.7187,0.7187,0.7187,0.7188,0,0.6471,0.652,0.654,0.6622,0.6662,0.6701,0.6769,0.6801,0.6837,0.6884,0.6937,0.6999,0.7063,0.708,0.7116,0.7142,0.7148,0.7171,0.7192,0.7177,0.718,0.7181,0.7183,0.7184,0.7185,0.7185,0,0,0.6421,0.6537,0.6543,0.6581,0.6666,0.6704,0.6745,0.6809,0.6835,0.6891,0.6927,0.6997,0.7019,0.7058,0.7099,0.7119,0.7117,0.714,0.7142,0.7133,0.7149,0.7131,0.7131,0.7139,0.714,0.714,0.7143,0,0.6421,0.65,0.6557,0.6613,0.6658,0.6715,0.675,0.6805,0.6849,0.6892,0.6941,0.6989,0.7015,0.7039,0.7061,0.7112,0.7121,0.7113,0.7172,0.7174,0.7154,0.7133,0.7115,0.7115,0.7145,0.7145,0.7145,0,0.6433,0.6488,0.6549,0.6628,0.6649,0.668,0.6743,0.6784,0.6846,0.6877,0.6919,0.6962,0.7006,0.7022,0.7083,0.7076,0.7103,0.7132,0.7133,0.7142,0.7159,0.7141,0.7116,0.7116,0.7147,0.7147,0.7147,0,0.639,0.6479,0.6527,0.6558,0.6651,0.6671,0.6711,0.6774,0.6808,0.6862,0.6885,0.6942,0.6974,0.7016,0.7072,0.7079,0.7127,0.7148,0.7153,0.7151,0.7161,0.716,0.7141,0.7178,0.7178,0.7178,0.7178,0,0.6385,0.6419,0.6509,0.6538,0.6578,0.6643,0.668,0.6724,0.6779,0.6816,0.6868,0.6902,0.6974,0.7016,0.7059,0.7103,0.7116,0.7142,0.7153,0.7138,0.7134,0.7157,0.7159,0.7178,0.7178,0.7178,0.7178,0,0.6344,0.6406,0.6461,0.6545,0.6567,0.6592,0.6663,0.6693,0.6739,0.6786,0.68,0.6873,0.6925,0.6985,0.7056,0.7085,0.7125,0.7141,0.7104,0.7111,0.7112,0.7111,0.7108,0.7111,0.7144,0.7144,0.7143,0,0.6337,0.6366,0.6452,0.6482,0.652,0.6567,0.6602,0.6665,0.67,0.6772,0.6792,0.6848,0.6897,0.6977,0.7035,0.7089,0.7107,0.7102,0.7116,0.7099,0.7108,0.7105,0.7108,0.7099,0.7098,0.7098,0.7097,0,0.6319,0.6347,0.6397,0.6457,0.6498,0.6547,0.6599,0.662,0.6693,0.6729,0.6783,0.682,0.6893,0.6948,0.7009,0.7048,0.7084,0.7092,0.7096,0.7081,0.7058,0.7071,0.7095,0.7092,0.7093,0.7093,0.7093,0.7094,0.6295,0.6323,0.6388,0.6441,0.6486,0.6533,0.6565,0.6615,0.6662,0.6727,0.6761,0.6814,0.6874,0.6961,0.6998,0.704,0.7052,0.7058,0.7059,0.706,0.7055,0.7051,0.7051,0.7051,0.7051,0.7052,0.7052,0,0.6279,0.6324,0.6372,0.6443,0.6484,0.6515,0.6573,0.6605,0.6652,0.6706,0.6752,0.6813,0.6866,0.6927,0.6984,0.7005,0.7023,0.7018,0.7017,0.7025,0.7041,0.7032,0.7002,0.7002,0.7002,0.7002,0.7002,0.7002,0.6276,0.6324,0.636,0.643,0.6474,0.6527,0.6558,0.66,0.6644,0.671,0.6755,0.6795,0.6851,0.6911,0.696,0.6977,0.6995,0.6985,0.7006,0.702,0.7024,0.7028,0.702,0.6988,0.6988,0.6987,0.6987,0.6987]}]]